Location: Unspecified
(52.1384°N, 8.6525°W)
Time: 19:01:59
(UTC+00:00)

N. Korean satellite - Pass Details

Date: 28 October 2020
Orbit: 453 x 503 km, 97.2° (Epoch: 04 December)

Event Time Altitude Azimuth Distance (km) Brightness Sun altitude
Rises 04:56:47 0° 32° (NNE) 2,486 10.7 -22.9°
Reaches altitude 10° 05:00:16 10° 71° (ENE) 1,599 10.3 -22.4°
Maximum altitude 05:01:16 11° 87° (E) 1,537 10.2 -22.2°
Drops below altitude 10° 05:02:12 10° 104° (ESE) 1,590 10.1 -22.1°
Sets 05:05:41 0° 143° (SE) 2,460 10.6 -21.6°
